Retour au catalogue

USA 444

ActifMilitaireVLEO
NORAD 62343·PAYLOAD·🇺🇸 United States

Lancé Dec 17, 2024 depuis Vandenberg Space Force Base

Loading…

Prochains Passages (prochaines 24 heures)

TLE

PériméSource: Mike McCants

Époque: Aug 20, 2026, 20:34 UTC

1 62343U 24243D   26232.85758192 0.00000000  00000-0  00000-0 0    06
2 62343  70.0211 134.7366 0003000 156.3305 203.6695 14.96713680    03

Suivez USA 444 en temps réel avec AllMySat

Download on the App Store